| time (UTC) | temp F | wind direction | speed MPH | gust MPH | rain 1hr in | rain 24hr in | rain mn in | humidity % | barometer mb |
| 20260506212532 | 51 | 269 | 5.0 | 12.0 | 0.00 | 0.00 | 0.00 | 50 | 1012.2 |
| 20260506212036 | 51 | 257 | 4.0 | 11.0 | 0.00 | 0.00 | 0.00 | 50 | 1012.1 |
| 20260506211546 | 51 | 277 | 2.0 | 11.0 | 0.00 | 0.00 | 0.00 | 52 | 1012.0 |
| 20260506211033 | 51 | 277 | 1.0 | 11.0 | 0.00 | 0.00 | 0.00 | 52 | 1012.1 |
| 20260506210536 | 51 | 311 | 5.0 | 11.0 | 0.00 | 0.00 | 0.00 | 50 | 1012.1 |
| 20260506210041 | 52 | 297 | 3.0 | 9.0 | 0.00 | 0.00 | 0.00 | 51 | 1012.2 |
| 20260506205532 | 52 | 272 | 3.0 | 10.0 | 0.00 | 0.00 | 0.00 | 51 | 1012.0 |
| 20260506205034 | 51 | 317 | 4.0 | 12.0 | 0.00 | 0.00 | 0.00 | 51 | 1012.1 |
| 20260506204538 | 51 | 253 | 3.0 | 13.0 | 0.00 | 0.00 | 0.00 | 50 | 1012.2 |
| 20260506204034 | 51 | 280 | 6.0 | 13.0 | 0.00 | 0.00 | 0.00 | 49 | 1012.1 |
| 20260506203534 | 52 | 328 | 5.0 | 12.0 | 0.00 | 0.00 | 0.00 | 49 | 1012.2 |
| 20260506203044 | 52 | 337 | 4.0 | 12.0 | 0.00 | 0.00 | 0.00 | 50 | 1012.2 |
| 20260506202537 | 52 | 273 | 5.0 | 12.0 | 0.00 | 0.00 | 0.00 | 47 | 1012.2 |
| 20260506202034 | 53 | 275 | 5.0 | 12.0 | 0.00 | 0.00 | 0.00 | 49 | 1012.4 |
| 20260506201543 | 53 | 277 | 3.0 | 13.0 | 0.00 | 0.00 | 0.00 | 52 | 1012.3 |
| 20260506201038 | 53 | 300 | 4.0 | 13.0 | 0.00 | 0.00 | 0.00 | 50 | 1012.4 |
| 20260506200533 | 53 | 272 | 3.0 | 10.0 | 0.00 | 0.00 | 0.00 | 51 | 1012.4 |
| 20260506200043 | 53 | 236 | 4.0 | 10.0 | 0.00 | 0.00 | 0.00 | 49 | 1012.3 |
| 20260506195537 | 53 | 265 | 3.0 | 9.0 | 0.00 | 0.00 | 0.00 | 50 | 1012.4 |
| 20260506195037 | 53 | 291 | 3.0 | 11.0 | 0.00 | 0.00 | 0.00 | 49 | 1012.3 |
| 20260506194542 | 53 | 276 | 5.0 | 13.0 | 0.00 | 0.00 | 0.00 | 48 | 1012.5 |
| 20260506194034 | 53 | 294 | 4.0 | 13.0 | 0.00 | 0.00 | 0.00 | 48 | 1012.3 |
| 20260506193538 | 53 | 284 | 5.0 | 15.0 | 0.00 | 0.00 | 0.00 | 49 | 1012.3 |
| 20260506193040 | 53 | 289 | 5.0 | 15.0 | 0.00 | 0.00 | 0.00 | 50 | 1012.4 |
| 20260506192535 | 52 | 355 | 3.0 | 11.0 | 0.00 | 0.00 | 0.00 | 50 | 1012.3 |
| 20260506192034 | 52 | 294 | 4.0 | 9.0 | 0.00 | 0.00 | 0.00 | 49 | 1012.2 |
| 20260506191546 | 52 | 200 | 5.0 | 9.0 | 0.00 | 0.00 | 0.00 | 49 | 1012.3 |
| 20260506191034 | 52 | 311 | 3.0 | 9.0 | 0.00 | 0.00 | 0.00 | 51 | 1012.3 |
| 20260506190536 | 52 | 232 | 3.0 | 13.0 | 0.00 | 0.00 | 0.00 | 50 | 1012.3 |
| 20260506190046 | 52 | 245 | 3.0 | 13.0 | 0.00 | 0.00 | 0.00 | 51 | 1012.5 |
| 20260506185536 | 52 | 355 | 4.0 | 12.0 | 0.00 | 0.00 | 0.00 | 50 | 1012.4 |
| 20260506185037 | 52 | 205 | 4.0 | 12.0 | 0.00 | 0.00 | 0.00 | 49 | 1012.5 |
| 20260506184551 | 52 | 278 | 4.0 | 12.0 | 0.00 | 0.00 | 0.00 | 49 | 1012.4 |
| 20260506184035 | 52 | 288 | 4.0 | 12.0 | 0.00 | 0.00 | 0.00 | 50 | 1012.2 |
| 20260506183535 | 52 | 253 | 3.0 | 10.0 | 0.00 | 0.00 | 0.00 | 52 | 1012.3 |
| 20260506183057 | 52 | 243 | 3.0 | 14.0 | 0.00 | 0.00 | 0.00 | 49 | 1012.3 |
| 20260506182534 | 53 | 221 | 4.0 | 14.0 | 0.00 | 0.00 | 0.00 | 51 | 1012.2 |
| 20260506182034 | 53 | 265 | 5.0 | 14.0 | 0.00 | 0.00 | 0.00 | 50 | 1012.2 |
| 20260506181618 | 53 | 224 | 3.0 | 14.0 | 0.00 | 0.00 | 0.00 | 49 | 1012.1 |
| 20260506181038 | 53 | 275 | 4.0 | 14.0 | 0.00 | 0.00 | 0.00 | 50 | 1012.1 |
| 20260506180535 | 52 | 293 | 4.0 | 12.0 | 0.00 | 0.00 | 0.00 | 52 | 1012.1 |
| 20260506180051 | 52 | 286 | 4.0 | 11.0 | 0.00 | 0.00 | 0.00 | 49 | 1012.2 |
| 20260506175536 | 51 | 288 | 4.0 | 9.0 | 0.00 | 0.00 | 0.00 | 50 | 1012.3 |
| 20260506175041 | 51 | 269 | 4.0 | 9.0 | 0.00 | 0.00 | 0.00 | 50 | 1012.4 |
| 20260506174548 | 51 | 335 | 4.0 | 11.0 | 0.00 | 0.00 | 0.00 | 49 | 1012.4 |
| 20260506174037 | 51 | 315 | 4.0 | 11.0 | 0.00 | 0.00 | 0.00 | 50 | 1012.5 |
| 20260506173535 | 52 | 226 | 5.0 | 11.0 | 0.00 | 0.00 | 0.00 | 51 | 1012.4 |
| 20260506173056 | 52 | 225 | 3.0 | 11.0 | 0.00 | 0.00 | 0.00 | 53 | 1012.5 |
| 20260506172536 | 51 | 227 | 3.0 | 11.0 | 0.00 | 0.00 | 0.00 | 53 | 1012.5 |
| 20260506172035 | 51 | 281 | 5.0 | 11.0 | 0.00 | 0.00 | 0.00 | 52 | 1012.6 |
| 20260506171549 | 51 | 276 | 3.0 | 11.0 | 0.00 | 0.00 | 0.00 | 53 | 1012.7 |
| 20260506171035 | 51 | 239 | 4.0 | 10.0 | 0.00 | 0.00 | 0.00 | 50 | 1012.5 |
| 20260506170538 | 51 | 219 | 4.0 | 13.0 | 0.00 | 0.00 | 0.00 | 51 | 1012.8 |
| 20260506170052 | 51 | 280 | 6.0 | 14.0 | 0.00 | 0.00 | 0.00 | 49 | 1012.8 |
| 20260506165535 | 51 | 242 | 6.0 | 14.0 | 0.00 | 0.00 | 0.00 | 51 | 1012.8 |
| 20260506165038 | 51 | 281 | 4.0 | 13.0 | 0.00 | 0.00 | 0.00 | 52 | 1012.8 |
| 20260506164549 | 52 | 259 | 4.0 | 13.0 | 0.00 | 0.00 | 0.00 | 53 | 1012.8 |
| 20260506164038 | 52 | 286 | 5.0 | 10.0 | 0.00 | 0.00 | 0.00 | 51 | 1012.8 |
| 20260506163534 | 51 | 279 | 3.0 | 10.0 | 0.00 | 0.00 | 0.00 | 52 | 1012.8 |
| 20260506163050 | 51 | 240 | 4.0 | 12.0 | 0.00 | 0.00 | 0.00 | 50 | 1012.8 |
| 20260506162537 | 52 | 230 | 4.0 | 12.0 | 0.00 | 0.00 | 0.00 | 54 | 1012.7 |
| 20260506162038 | 51 | 301 | 2.0 | 13.0 | 0.00 | 0.00 | 0.00 | 60 | 1012.7 |
| 20260506161548 | 50 | 218 | 4.0 | 13.0 | 0.00 | 0.00 | 0.00 | 53 | 1012.8 |
| 20260506161034 | 51 | 282 | 6.0 | 13.0 | 0.00 | 0.00 | 0.00 | 52 | 1012.7 |
| 20260506160537 | 51 | 232 | 4.0 | 10.0 | 0.00 | 0.00 | 0.00 | 58 | 1012.7 |
| 20260506160053 | 50 | 230 | 1.0 | 11.0 | 0.00 | 0.00 | 0.00 | 57 | 1012.7 |
| 20260506155538 | 50 | 279 | 3.0 | 11.0 | 0.00 | 0.00 | 0.00 | 53 | 1012.8 |
| 20260506155035 | 50 | 269 | 2.0 | 11.0 | 0.00 | 0.00 | 0.00 | 53 | 1012.7 |
| 20260506154555 | 51 | 281 | 2.0 | 11.0 | 0.00 | 0.00 | 0.00 | 52 | 1012.6 |
| 20260506154035 | 51 | 304 | 5.0 | 12.0 | 0.00 | 0.00 | 0.00 | 52 | 1012.8 |
| 20260506153534 | 51 | 261 | 4.0 | 12.0 | 0.00 | 0.00 | 0.00 | 54 | 1012.7 |
| 20260506153107 | 50 | 223 | 4.0 | 9.0 | 0.00 | 0.00 | 0.00 | 55 | 1012.7 |
| 20260506152534 | 50 | 321 | 3.0 | 9.0 | 0.00 | 0.00 | 0.00 | 51 | 1012.7 |
| 20260506152034 | 51 | 250 | 2.0 | 10.0 | 0.00 | 0.00 | 0.00 | 53 | 1012.6 |
| 20260506151544 | 51 | 267 | 3.0 | 13.0 | 0.00 | 0.00 | 0.00 | 52 | 1012.6 |
| 20260506151038 | 51 | 302 | 5.0 | 13.0 | 0.00 | 0.00 | 0.00 | 54 | 1012.6 |
| 20260506150537 | 51 | 271 | 4.0 | 13.0 | 0.00 | 0.00 | 0.00 | 54 | 1012.7 |
| 20260506150057 | 51 | 284 | 2.0 | 10.0 | 0.00 | 0.00 | 0.00 | 53 | 1012.6 |
| 20260506145535 | 50 | 267 | 4.0 | 10.0 | 0.00 | 0.00 | 0.00 | 58 | 1012.6 |
| 20260506145037 | 50 | 266 | 4.0 | 8.0 | 0.00 | 0.00 | 0.00 | 53 | 1012.7 |
| 20260506144556 | 50 | 284 | 3.0 | 10.0 | 0.00 | 0.00 | 0.00 | 55 | 1012.7 |
| 20260506144036 | 50 | 321 | 4.0 | 10.0 | 0.00 | 0.00 | 0.00 | 55 | 1012.5 |
| 20260506143537 | 50 | 309 | 2.0 | 8.0 | 0.00 | 0.00 | 0.00 | 59 | 1012.5 |
| 20260506143043 | 50 | 0 | 3.0 | 8.0 | 0.00 | 0.00 | 0.00 | 56 | 1012.5 |
| 20260506142534 | 50 | 248 | 3.0 | 9.0 | 0.00 | 0.00 | 0.00 | 60 | 1012.6 |
| 20260506142034 | 50 | 284 | 3.0 | 9.0 | 0.00 | 0.00 | 0.00 | 56 | 1012.5 |
| 20260506141541 | 50 | 317 | 4.0 | 9.0 | 0.00 | 0.00 | 0.00 | 56 | 1012.5 |
| 20260506141035 | 49 | 329 | 3.0 | 10.0 | 0.00 | 0.00 | 0.00 | 57 | 1012.7 |
| 20260506140537 | 49 | 0 | 5.0 | 10.0 | 0.00 | 0.00 | 0.00 | 58 | 1012.6 |
| 20260506140048 | 49 | 317 | 1.0 | 8.0 | 0.00 | 0.00 | 0.00 | 62 | 1012.6 |
| 20260506135535 | 49 | 0 | 2.0 | 8.0 | 0.00 | 0.00 | 0.00 | 62 | 1012.5 |
| 20260506135038 | 49 | 275 | 3.0 | 9.0 | 0.00 | 0.00 | 0.00 | 61 | 1012.4 |
| 20260506134546 | 49 | 0 | 3.0 | 9.0 | 0.00 | 0.00 | 0.00 | 61 | 1012.5 |
| 20260506134041 | 48 | 343 | 3.0 | 9.0 | 0.00 | 0.00 | 0.00 | 60 | 1012.5 |
| 20260506133537 | 48 | 284 | 2.0 | 9.0 | 0.00 | 0.00 | 0.00 | 61 | 1012.4 |
| 20260506133048 | 48 | 0 | 2.0 | 6.0 | 0.00 | 0.00 | 0.00 | 63 | 1012.4 |
| 20260506132540 | 47 | 266 | 2.0 | 6.0 | 0.00 | 0.00 | 0.00 | 61 | 1012.3 |
| 20260506132038 | 47 | 207 | 1.0 | 6.0 | 0.00 | 0.00 | 0.00 | 63 | 1012.3 |
| 20260506131551 | 46 | 211 | 1.0 | 4.0 | 0.00 | 0.00 | 0.00 | 65 | 1012.3 |
| 20260506131037 | 46 | 226 | 2.0 | 4.0 | 0.00 | 0.00 | 0.00 | 66 | 1012.1 |
| 20260506130536 | 45 | 271 | 0.0 | 3.0 | 0.00 | 0.00 | 0.00 | 70 | 1012.2 |
| 20260506130042 | 45 | 0 | 1.0 | 3.0 | 0.00 | 0.00 | 0.00 | 71 | 1012.1 |
| 20260506125534 | 44 | 0 | 0.0 | 1.0 | 0.00 | 0.00 | 0.00 | 71 | 1012.2 |
| 20260506125034 | 44 | 0 | 0.0 | 2.0 | 0.00 | 0.00 | 0.00 | 75 | 1012.2 |
| 20260506124540 | 43 | 0 | 0.0 | 3.0 | 0.00 | 0.00 | 0.00 | 77 | 1012.2 |
| 20260506124050 | 42 | 309 | 0.0 | 3.0 | 0.00 | 0.00 | 0.00 | 81 | 1012.1 |
| 20260506123536 | 41 | 309 | 0.0 | 3.0 | 0.00 | 0.00 | 0.00 | 85 | 1012.1 |
| 20260506123042 | 39 | 309 | 1.0 | 4.0 | 0.00 | 0.00 | 0.00 | 89 | 1012.0 |
| 20260506122535 | 38 | 0 | 1.0 | 4.0 | 0.00 | 0.00 | 0.00 | 94 | 1011.8 |
| 20260506122037 | 37 | 312 | 0.0 | 3.0 | 0.00 | 0.00 | 0.00 | 97 | 1011.7 |
| 20260506121545 | 35 | 342 | 0.0 | 2.0 | 0.00 | 0.00 | 0.00 | 98 | 1011.9 |
| 20260506121039 | 34 | 0 | 0.0 | 2.0 | 0.00 | 0.00 | 0.00 | 97 | 1011.8 |
| 20260506120535 | 33 | 342 | 0.0 | 2.0 | 0.00 | 0.00 | 0.00 | 97 | 1011.8 |
| 20260506120044 | 33 | 0 | 0.0 | 1.0 | 0.00 | 0.00 | 0.00 | 97 | 1011.7 |
| 20260506115536 | 32 | 0 | 0.0 | 1.0 | 0.00 | 0.00 | 0.00 | 97 | 1011.7 |
| 20260506115037 | 32 | 0 | 0.0 | 1.0 | 0.00 | 0.00 | 0.00 | 96 | 1011.8 |
| 20260506114550 | 31 | 59 | 0.0 | 1.0 | 0.00 | 0.00 | 0.00 | 96 | 1011.8 |
| 20260506114036 | 31 | 0 | 0.0 | 0.0 | 0.00 | 0.00 | 0.00 | 95 | 1011.7 |
| 20260506113536 | 31 | 0 | 0.0 | 0.0 | 0.00 | 0.00 | 0.00 | 95 | 1011.6 |
| 20260506113048 | 31 | 0 | 0.0 | 0.0 | 0.00 | 0.00 | 0.00 | 95 | 1011.6 |
| 20260506112536 | 31 | 0 | 0.0 | 0.0 | 0.00 | 0.00 | 0.00 | 95 | 1011.4 |
| 20260506112039 | 31 | 0 | 0.0 | 0.0 | 0.00 | 0.00 | 0.00 | 95 | 1011.6 |
| 20260506111542 | 30 | 0 | 0.0 | 0.0 | 0.00 | 0.00 | 0.00 | 94 | 1011.6 |
| 20260506111035 | 30 | 0 | 0.0 | 0.0 | 0.00 | 0.00 | 0.00 | 95 | 1011.6 |
| 20260506110537 | 30 | 0 | 0.0 | 2.0 | 0.00 | 0.00 | 0.00 | 95 | 1011.4 |
| 20260506110049 | 30 | 0 | 0.0 | 2.0 | 0.00 | 0.00 | 0.00 | 94 | 1011.5 |
| 20260506105537 | 30 | 0 | 0.0 | 2.0 | 0.00 | 0.00 | 0.00 | 94 | 1011.4 |
| 20260506105039 | 29 | 0 | 0.0 | 0.0 | 0.00 | 0.00 | 0.00 | 94 | 1011.3 |
| 20260506104545 | 30 | 0 | 0.0 | 0.0 | 0.00 | 0.00 | 0.00 | 94 | 1011.0 |
| 20260506104037 | 30 | 0 | 0.0 | 0.0 | 0.00 | 0.00 | 0.00 | 94 | 1011.1 |
| 20260506103536 | 29 | 0 | 0.0 | 0.0 | 0.00 | 0.00 | 0.00 | 94 | 1011.0 |
| 20260506103052 | 29 | 0 | 0.0 | 0.0 | 0.00 | 0.00 | 0.00 | 93 | 1011.1 |
| 20260506102538 | 29 | 0 | 0.0 | 0.0 | 0.00 | 0.00 | 0.00 | 93 | 1011.0 |
| 20260506102036 | 29 | 0 | 0.0 | 0.0 | 0.00 | 0.00 | 0.00 | 93 | 1010.7 |
| 20260506101548 | 29 | 0 | 0.0 | 0.0 | 0.00 | 0.00 | 0.00 | 93 | 1010.8 |
| 20260506101035 | 29 | 0 | 0.0 | 0.0 | 0.00 | 0.00 | 0.00 | 92 | 1010.8 |
| 20260506100539 | 30 | 0 | 0.0 | 0.0 | 0.00 | 0.00 | 0.00 | 92 | 1011.0 |
| 20260506100050 | 30 | 0 | 0.0 | 0.0 | 0.00 | 0.00 | 0.00 | 92 | 1011.0 |
| 20260506095535 | 30 | 0 | 0.0 | 0.0 | 0.00 | 0.00 | 0.00 | 92 | 1011.0 |
| 20260506095036 | 30 | 0 | 0.0 | 0.0 | 0.00 | 0.00 | 0.00 | 92 | 1011.0 |
| 20260506094547 | 30 | 0 | 0.0 | 0.0 | 0.00 | 0.00 | 0.00 | 92 | 1011.0 |
| 20260506094040 | 30 | 0 | 0.0 | 0.0 | 0.00 | 0.00 | 0.00 | 92 | 1010.9 |
| 20260506093535 | 30 | 0 | 0.0 | 0.0 | 0.00 | 0.00 | 0.00 | 91 | 1011.0 |
| 20260506093047 | 30 | 0 | 0.0 | 0.0 | 0.00 | 0.00 | 0.00 | 91 | 1011.0 |
| 20260506092536 | 30 | 0 | 0.0 | 0.0 | 0.00 | 0.00 | 0.00 | 91 | 1011.1 |
| 20260506092037 | 30 | 0 | 0.0 | 0.0 | 0.00 | 0.00 | 0.00 | 90 | 1011.2 |
| 20260506091551 | 30 | 0 | 0.0 | 0.0 | 0.00 | 0.00 | 0.00 | 90 | 1011.1 |
| 20260506091036 | 31 | 0 | 0.0 | 0.0 | 0.00 | 0.00 | 0.00 | 90 | 1011.0 |
| 20260506090539 | 31 | 0 | 0.0 | 0.0 | 0.00 | 0.00 | 0.00 | 90 | 1011.0 |
| 20260506090041 | 31 | 0 | 0.0 | 0.0 | 0.00 | 0.00 | 0.00 | 89 | 1011.0 |
| 20260506085536 | 31 | 0 | 0.0 | 0.0 | 0.00 | 0.00 | 0.00 | 89 | 1011.3 |
| 20260506085036 | 31 | 0 | 0.0 | 0.0 | 0.00 | 0.00 | 0.00 | 89 | 1011.0 |
| 20260506084546 | 31 | 0 | 0.0 | 0.0 | 0.00 | 0.00 | 0.00 | 88 | 1011.0 |
| 20260506084039 | 31 | 0 | 0.0 | 0.0 | 0.00 | 0.00 | 0.00 | 88 | 1011.0 |
| 20260506083538 | 31 | 0 | 0.0 | 0.0 | 0.00 | 0.00 | 0.00 | 88 | 1010.9 |
| 20260506083040 | 31 | 0 | 0.0 | 0.0 | 0.00 | 0.00 | 0.00 | 87 | 1011.0 |
| 20260506082538 | 31 | 0 | 0.0 | 0.0 | 0.00 | 0.00 | 0.00 | 87 | 1010.9 |
| 20260506082033 | 31 | 0 | 0.0 | 0.0 | 0.00 | 0.00 | 0.00 | 86 | 1010.9 |
| 20260506081540 | 31 | 0 | 0.0 | 0.0 | 0.00 | 0.00 | 0.00 | 86 | 1010.7 |
| 20260506081035 | 31 | 0 | 0.0 | 0.0 | 0.00 | 0.00 | 0.00 | 86 | 1010.7 |
| 20260506080535 | 32 | 0 | 0.0 | 0.0 | 0.00 | 0.00 | 0.00 | 86 | 1010.7 |
| 20260506073041 | 33 | 0 | 0.0 | 0.0 | 0.00 | 0.00 | 0.00 | 86 | 1010.6 |
| 20260506072536 | 34 | 0 | 0.0 | 0.0 | 0.00 | 0.00 | 0.00 | 85 | 1010.5 |
| 20260506072037 | 34 | 0 | 0.0 | 0.0 | 0.00 | 0.00 | 0.00 | 85 | 1010.5 |
| 20260506071544 | 34 | 0 | 0.0 | 0.0 | 0.00 | 0.00 | 0.00 | 84 | 1010.6 |
| 20260506071036 | 34 | 0 | 0.0 | 0.0 | 0.00 | 0.00 | 0.00 | 84 | 1010.5 |
| 20260506070535 | 35 | 0 | 0.0 | 0.0 | 0.00 | 0.00 | 0.00 | 83 | 1010.6 |
| 20260506062037 | 37 | 0 | 0.0 | 0.0 | 0.00 | 0.00 | 0.00 | 79 | 1010.7 |
| 20260506061544 | 37 | 0 | 0.0 | 0.0 | 0.00 | 0.00 | 0.00 | 78 | 1010.7 |
| 20260506061037 | 37 | 0 | 0.0 | 0.0 | 0.00 | 0.00 | 0.00 | 77 | 1010.7 |
| 20260506060536 | 38 | 0 | 0.0 | 0.0 | 0.00 | 0.00 | 0.00 | 76 | 1010.6 |
| 20260506051038 | 39 | 0 | 0.0 | 0.0 | 0.00 | 0.00 | 0.00 | 72 | 1010.9 |
| 20260506050536 | 40 | 0 | 0.0 | 2.0 | 0.00 | 0.00 | 0.00 | 71 | 1011.0 |
| 20260506045032 | 41 | 0 | 0.0 | 0.0 | 0.00 | 0.00 | 0.00 | 66 | 1011.0 |
| 20260506044542 | 41 | 0 | 0.0 | 0.0 | 0.00 | 0.00 | 0.00 | 65 | 1010.9 |
| 20260506044034 | 42 | 0 | 0.0 | 0.0 | 0.00 | 0.00 | 0.00 | 64 | 1010.9 |
| 20260506043534 | 43 | 0 | 0.0 | 0.0 | 0.00 | 0.00 | 0.00 | 62 | 1010.8 |
| 20260506043040 | 43 | 0 | 0.0 | 2.0 | 0.00 | 0.00 | 0.00 | 61 | 1010.7 |
| 20260506042538 | 44 | 0 | 0.0 | 2.0 | 0.00 | 0.00 | 0.00 | 60 | 1010.8 |
| 20260506042033 | 44 | 0 | 0.0 | 2.0 | 0.00 | 0.00 | 0.00 | 59 | 1010.7 |
| 20260506041546 | 44 | 0 | 0.0 | 5.0 | 0.00 | 0.00 | 0.00 | 58 | 1010.6 |
| 20260506041034 | 45 | 43 | 1.0 | 6.0 | 0.00 | 0.00 | 0.00 | 57 | 1010.6 |
| 20260506040535 | 45 | 0 | 0.0 | 8.0 | 0.00 | 0.00 | 0.00 | 57 | 1010.6 |
| 20260506040051 | 45 | 16 | 2.0 | 8.0 | 0.00 | 0.00 | 0.00 | 56 | 1010.6 |
| 20260506035533 | 45 | 32 | 3.0 | 9.0 | 0.00 | 0.00 | 0.00 | 55 | 1010.5 |
| 20260506035033 | 46 | 22 | 4.0 | 11.0 | 0.00 | 0.00 | 0.00 | 56 | 1010.3 |
| 20260506034559 | 46 | 18 | 5.0 | 11.0 | 0.00 | 0.00 | 0.00 | 55 | 1010.3 |
| 20260506034037 | 46 | 22 | 5.0 | 11.0 | 0.00 | 0.00 | 0.00 | 55 | 1010.3 |
| 20260506033536 | 46 | 10 | 2.0 | 5.0 | 0.00 | 0.00 | 0.00 | 56 | 1010.3 |
| 20260506033049 | 46 | 5 | 2.0 | 5.0 | 0.00 | 0.00 | 0.00 | 55 | 1010.4 |
| 20260506032539 | 46 | 17 | 2.0 | 5.0 | 0.00 | 0.00 | 0.00 | 55 | 1010.3 |
| 20260506032037 | 46 | 15 | 2.0 | 5.0 | 0.00 | 0.00 | 0.00 | 55 | 1010.4 |
| 20260506031550 | 47 | 360 | 1.0 | 6.0 | 0.00 | 0.00 | 0.00 | 54 | 1010.3 |
| 20260506031034 | 47 | 15 | 2.0 | 7.0 | 0.00 | 0.00 | 0.00 | 54 | 1010.2 |
| 20260506030533 | 47 | 26 | 2.0 | 9.0 | 0.00 | 0.00 | 0.00 | 53 | 1010.0 |
| 20260506030054 | 47 | 27 | 2.0 | 9.0 | 0.00 | 0.00 | 0.00 | 54 | 1010.1 |
| 20260506025536 | 47 | 28 | 3.0 | 9.0 | 0.00 | 0.00 | 0.00 | 54 | 1010.0 |
| 20260506025036 | 47 | 323 | 3.0 | 6.0 | 0.00 | 0.00 | 0.00 | 54 | 1010.0 |
| 20260506024607 | 47 | 5 | 2.0 | 5.0 | 0.00 | 0.00 | 0.00 | 52 | 1010.0 |
| 20260506024036 | 48 | 349 | 2.0 | 9.0 | 0.00 | 0.00 | 0.00 | 52 | 1010.0 |
| 20260506023537 | 48 | 305 | 2.0 | 9.0 | 0.00 | 0.00 | 0.00 | 51 | 1009.8 |
| 20260506023040 | 48 | 321 | 2.0 | 4.0 | 0.00 | 0.00 | 0.00 | 51 | 1009.6 |
| 20260506022539 | 48 | 321 | 1.0 | 4.0 | 0.00 | 0.00 | 0.00 | 51 | 1009.8 |
| 20260506022034 | 48 | 320 | 1.0 | 4.0 | 0.00 | 0.00 | 0.00 | 51 | 1009.6 |
| 20260506021544 | 48 | 323 | 0.0 | 3.0 | 0.00 | 0.00 | 0.00 | 50 | 1009.6 |
| 20260506021036 | 49 | 321 | 1.0 | 3.0 | 0.00 | 0.00 | 0.00 | 50 | 1009.6 |
| 20260506020535 | 49 | 0 | 0.0 | 3.0 | 0.00 | 0.00 | 0.00 | 50 | 1009.4 |
| 20260506020050 | 49 | 324 | 1.0 | 3.0 | 0.00 | 0.00 | 0.00 | 49 | 1009.4 |
| 20260506015536 | 49 | 323 | 1.0 | 3.0 | 0.00 | 0.00 | 0.00 | 48 | 1009.1 |
| 20260506015037 | 49 | 322 | 1.0 | 3.0 | 0.00 | 0.00 | 0.00 | 49 | 1009.1 |
| 20260506014551 | 50 | 0 | 0.0 | 5.0 | 0.00 | 0.00 | 0.00 | 48 | 1008.9 |
| 20260506014038 | 50 | 0 | 1.0 | 8.0 | 0.00 | 0.00 | 0.00 | 47 | 1008.9 |
| 20260506013539 | 50 | 318 | 1.0 | 8.0 | 0.00 | 0.00 | 0.00 | 47 | 1008.8 |
| 20260506013058 | 50 | 346 | 3.0 | 8.0 | 0.00 | 0.00 | 0.00 | 46 | 1008.8 |
| 20260506012536 | 51 | 319 | 2.0 | 5.0 | 0.00 | 0.00 | 0.00 | 46 | 1008.6 |
| 20260506012037 | 51 | 329 | 1.0 | 10.0 | 0.00 | 0.00 | 0.00 | 46 | 1008.5 |
| 20260506011556 | 51 | 317 | 1.0 | 10.0 | 0.00 | 0.00 | 0.00 | 46 | 1008.4 |
| 20260506011035 | 51 | 327 | 4.0 | 10.0 | 0.00 | 0.00 | 0.00 | 45 | 1008.2 |
| 20260506010536 | 51 | 315 | 3.0 | 10.0 | 0.00 | 0.00 | 0.00 | 45 | 1008.3 |
| 20260506010055 | 52 | 337 | 4.0 | 11.0 | 0.00 | 0.00 | 0.00 | 46 | 1008.2 |
| 20260506005536 | 52 | 338 | 3.0 | 11.0 | 0.00 | 0.00 | 0.00 | 45 | 1008.3 |
| 20260506005036 | 52 | 5 | 3.0 | 11.0 | 0.00 | 0.00 | 0.00 | 45 | 1008.2 |
| 20260506004543 | 52 | 15 | 4.0 | 10.0 | 0.00 | 0.00 | 0.00 | 44 | 1008.0 |
| 20260506004035 | 53 | 348 | 4.0 | 10.0 | 0.00 | 0.00 | 0.00 | 44 | 1008.0 |
| 20260506003536 | 53 | 309 | 2.0 | 8.0 | 0.00 | 0.00 | 0.00 | 44 | 1008.0 |
| 20260506003041 | 53 | 347 | 3.0 | 10.0 | 0.00 | 0.00 | 0.00 | 43 | 1007.9 |
| 20260506002532 | 53 | 346 | 3.0 | 10.0 | 0.00 | 0.00 | 0.00 | 43 | 1007.8 |
| 20260506002033 | 53 | 331 | 3.0 | 9.0 | 0.00 | 0.00 | 0.00 | 42 | 1007.7 |
| 20260506001550 | 53 | 323 | 2.0 | 10.0 | 0.00 | 0.00 | 0.00 | 43 | 1007.7 |
| 20260506001034 | 53 | 277 | 3.0 | 10.0 | 0.00 | 0.00 | 0.00 | 43 | 1007.7 |
| 20260506000537 | 54 | 288 | 1.0 | 7.0 | 0.00 | 0.00 | 0.00 | 43 | 1007.7 |
| 20260506000049 | 54 | 335 | 2.0 | 9.0 | 0.00 | 0.00 | 0.00 | 42 | 1007.7 |
| 20260505235536 | 54 | 315 | 3.0 | 10.0 | 0.00 | 0.00 | 0.00 | 42 | 1007.6 |
| 20260505235036 | 54 | 266 | 3.0 | 10.0 | 0.00 | 0.00 | 0.00 | 42 | 1007.6 |
| 20260505234545 | 54 | 285 | 4.0 | 11.0 | 0.00 | 0.00 | 0.00 | 42 | 1007.6 |
| 20260505234037 | 54 | 309 | 4.0 | 11.0 | 0.00 | 0.00 | 0.00 | 41 | 1007.7 |
| 20260505233535 | 54 | 328 | 3.0 | 9.0 | 0.00 | 0.00 | 0.00 | 42 | 1007.7 |
| 20260505233046 | 54 | 334 | 3.0 | 11.0 | 0.00 | 0.00 | 0.00 | 40 | 1007.5 |
| 20260505232535 | 54 | 337 | 5.0 | 11.0 | 0.00 | 0.00 | 0.00 | 40 | 1007.6 |
| 20260505232035 | 55 | 319 | 3.0 | 12.0 | 0.00 | 0.00 | 0.00 | 42 | 1007.6 |
| 20260505231544 | 55 | 302 | 5.0 | 12.0 | 0.00 | 0.00 | 0.00 | 40 | 1007.7 |
| 20260505231041 | 55 | 348 | 4.0 | 11.0 | 0.00 | 0.00 | 0.00 | 42 | 1007.7 |
| 20260505230535 | 55 | 315 | 3.0 | 11.0 | 0.00 | 0.00 | 0.00 | 41 | 1007.7 |
| 20260505230057 | 55 | 323 | 3.0 | 11.0 | 0.00 | 0.00 | 0.00 | 41 | 1007.7 |
| 20260505225536 | 55 | 320 | 5.0 | 13.0 | 0.00 | 0.00 | 0.00 | 40 | 1007.7 |
| 20260505225038 | 56 | 312 | 4.0 | 13.0 | 0.00 | 0.00 | 0.00 | 41 | 1007.7 |
| 20260505224552 | 56 | 266 | 3.0 | 12.0 | 0.00 | 0.00 | 0.00 | 41 | 1007.8 |
| 20260505224040 | 56 | 321 | 5.0 | 12.0 | 0.00 | 0.00 | 0.00 | 39 | 1007.8 |
| 20260505223533 | 56 | 222 | 2.0 | 12.0 | 0.00 | 0.00 | 0.00 | 40 | 1007.6 |
| 20260505223057 | 56 | 299 | 5.0 | 12.0 | 0.00 | 0.00 | 0.00 | 40 | 1007.8 |
| 20260505222534 | 56 | 277 | 4.0 | 12.0 | 0.00 | 0.00 | 0.00 | 39 | 1007.5 |
| 20260505222034 | 56 | 270 | 3.0 | 12.0 | 0.00 | 0.00 | 0.00 | 40 | 1007.4 |
| 20260505221553 | 57 | 264 | 3.0 | 12.0 | 0.00 | 0.00 | 0.00 | 41 | 1007.6 |
| 20260505221037 | 57 | 265 | 5.0 | 11.0 | 0.00 | 0.00 | 0.00 | 40 | 1007.6 |
| 20260505220533 | 57 | 294 | 3.0 | 15.0 | 0.00 | 0.00 | 0.00 | 41 | 1007.4 |
| 20260505220047 | 56 | 318 | 6.0 | 15.0 | 0.00 | 0.00 | 0.00 | 39 | 1007.2 |
| 20260505215534 | 57 | 5 | 4.0 | 12.0 | 0.00 | 0.00 | 0.00 | 43 | 1007.4 |
| 20260505215034 | 57 | 295 | 5.0 | 12.0 | 0.00 | 0.00 | 0.00 | 40 | 1007.4 |
| 20260505214544 | 56 | 355 | 3.0 | 15.0 | 0.00 | 0.00 | 0.00 | 41 | 1007.4 |
| 20260505214034 | 55 | 261 | 4.0 | 15.0 | 0.00 | 0.00 | 0.00 | 44 | 1007.7 |
| 20260505213534 | 55 | 242 | 6.0 | 12.0 | 0.00 | 0.00 | 0.00 | 42 | 1007.5 |
| 20260505213053 | 56 | 292 | 4.0 | 10.0 | 0.00 | 0.00 | 0.00 | 42 | 1007.5 |